Probability
0 0 0 0 0 0 0 0 3 0 0 0 0 0 0 0 0 0 0 10 13 13 10 10 10 10 10 10 10 16 13 23 19 19 19 16 13 16 16 13 19 13 13
0 0 0 0 0 0 0 0 0 0 0 0 0 0 0 0 0 0 0 0 6 6 10 10 6 6 10 13 13 13 13 10 10 13 13 10 13 13 10 13 10 10 10
0 0 0 0 0 0 0 0 0 0 0 0 0 0 0 0 0 0 0 0 0 6 6 3 6 10 13 10 10 6 10 10 10 10 10 10 6 6 6 10 10 10 6
0 0 0 0 0 0 0 0 0 0 0 0 0 0 0 0 0 0 0 0 0 0 0 6 3 3 3 3 3 6 10 6 6 10 10 10 13 10 6 6 6 6 6
0 0 0 0 0 0 0 0 0 0 0 0 0 0 0 0 0 0 0 0 0 0 0 0 3 3 0 0 0 3 6 10 10 6 6 6 3 6 6 3 3 3 3
0 0 0 3 0 0 0 0 0 0 0 0 0 0 0 0 0 0 0 0 0 0 0 0 0 0 3 0 0 0 0 10 10 10 10 6 3 3 3 0 0 0 0
3 3 3 3 0 0 0 0 0 0 0 0 0 0 0 0 0 0 0 0 0 0 0 0 0 0 0 0 0 0 0 3 6 10 10 10 3 3 0 0 0 0 0
0 3 3 3 0 0 0 0 0 0 0 0 0 0 0 0 0 0 0 0 0 0 0 0 0 0 0 0 0 0 0 0 6 6 10 10 3 3 0 0 0 0 0
3 3 3 3 0 3 0 0 3 3 0 0 0 0 0 0 0 0 0 0 0 0 0 0 0 0 0 0 0 0 0 0 3 3 6 10 3 3 3 3 0 0 0
3 3 3 3 3 0 0 0 3 3 6 0 0 0 0 0 0 0 0 0 0 0 0 0 0 0 0 0 0 0 0 0 0 3 3 6 3 0 0 0 0 0 0
3 3 3 3 3 0 0 0 0 0 0 0 0 0 0 0 0 0 0 0 0 0 0 0 0 0 0 0 0 0 0 0 0 3 3 3 0 0 0 0 0 0 0
3 3 3 3 3 3 3 3 0 3 3 3 0 0 0 0 0 0 0 0 0 0 0 0 0 0 0 0 0 0 0 0 0 0 3 3 0 0 0 0 0 0 0
0 3 3 3 3 3 3 3 3 3 6 3 6 0 0 0 0 0 0 0 0 0 0 0 0 0 0 0 0 0 0 0 0 0 0 0 0 0 0 0 0 0 0
0 0 0 3 3 3 3 3 0 3 3 0 3 0 0 0 0 0 0 0 0 0 0 0 0 0 0 0 0 0 0 0 0 0 0 0 0 0 0 0 0 0 0
0 0 3 3 0 3 3 0 0 0 0 0 0 0 0 0 0 0 0 0 0 0 0 0 0 0 0 0 0 0 0 0 0 0 0 0 0 0 0 0 0 0 0
0 3 0 0 0 0 0 0 0 0 0 0 0 0 0 0 0 0 0 0 0 0 0 0 0 0 0 0 0 0 0 0 0 0 0 0 0 0 0 0 0 0 0
0 0 0 0 0 0 0 0 0 0 0 0 0 0 0 0 0 0 0 0 0 0 0 0 0 0 0 0 0 0 0 0 0 0 0 0 0 0 0 0 0 0 0
0 0 0 0 0 0 0 0 3 0 0 0 0 0 0 0 0 0 0 0 0 0 0 0 0 0 0 0 0 0 0 0 0 0 0 0 0 0 0 0 0 0 0
0 0 0 0 0 0 0 0 0 0 0 0 0 0 0 0 0 0 0 0 0 0 0 0 0 0 0 0 0 0 0 0 0 0 0 0 0 0 0 0 0 0 0
0 0 0 0 0 0 0 0 0 0 0 0 0 0 0 0 0 0 0 0 0 0 0 0 0 0 0 0 0 0 0 0 0 0 0 0 0 0 0 0 0 0 0
0 0 0 0 0 0 0 0 0 0 0 0 0 0 0 0 0 0 0 0 0 0 0 0 0 0 0 0 0 0 0 0 0 0 0 0 0 0 0 0 0 0 0
0 0 0 0 0 0 0 0 0 0 0 0 0 0 0 0 0 0 0 0 0 0 0 0 0 0 0 0 0 0 0 0 0 0 0 0 0 0 0 0 0 0 0
0 0 0 0 0 0 0 0 0 0 0 0 0 0 3 0 0 0 0 0 0 0 0 0 0 0 0 0 0 0 0 0 0 0 0 0 0 0 0 0 0 0 0
0 0 0 0 0 0 0 0 0 0 0 0 0 0 0 0 0 0 0 0 0 0 0 0 0 0 0 0 0 0 0 0 0 0 0 0 0 0 0 0 0 0 0
0 0 0 0 0 0 0 0 0 0 0 0 0 0 0 0 0 0 0 0 0 0 0 0 0 0 0 0 0 0 0 0 0 0 0 0 0 0 0 0 0 0 0
3 0 0 0 0 0 0 0 0 0 0 0 0 0 0 0 0 0 0 0 0 0 0 0 0 0 0 0 0 0 0 0 0 0 0 0 0 0 0 0 0 0 0
Height
5850 5850 5849 5849 5849 5850 5850 5850 5850 5851 5851 5851 5852 5852 5852 5853 5853 5854 5855 5855 5856 5856 5857 5858 5858 5858 5859 5859 5860 5860 5860 5861 5861 5861 5861 5861 5861 5861 5861 5861 5861 5861 5861
5848 5848 5847 5847 5847 5847 5847 5848 5848 5849 5849 5849 5849 5850 5850 5850 5851 5852 5852 5853 5853 5854 5854 5855 5856 5856 5856 5857 5857 5858 5858 5858 5858 5858 5858 5858 5858 5859 5859 5858 5858 5858 5858
5846 5846 5846 5845 5846 5846 5846 5846 5846 5846 5846 5847 5847 5847 5847 5847 5848 5849 5850 5850 5851 5851 5852 5853 5853 5854 5853 5854 5855 5855 5855 5855 5856 5856 5856 5856 5856 5856 5856 5855 5856 5856 5856
5845 5844 5844 5844 5844 5844 5844 5844 5844 5844 5844 5844 5844 5845 5845 5845 5845 5846 5847 5847 5848 5849 5849 5850 5851 5851 5852 5852 5852 5852 5853 5853 5853 5853 5853 5853 5853 5853 5853 5853 5853 5853 5853
5843 5842 5842 5842 5842 5842 5842 5842 5842 5842 5842 5842 5843 5843 5843 5843 5843 5844 5844 5845 5846 5846 5847 5848 5848 5848 5849 5849 5849 5850 5850 5850 5850 5850 5850 5850 5850 5850 5850 5849 5849 5849 5849
5841 5841 5841 5840 5840 5841 5841 5841 5840 5840 5841 5841 5841 5841 5840 5841 5841 5841 5842 5842 5843 5844 5844 5845 5846 5846 5846 5847 5847 5847 5847 5847 5847 5847 5847 5847 5847 5847 5847 5846 5846 5846 5846
5840 5840 5839 5839 5839 5839 5839 5839 5839 5839 5839 5839 5839 5839 5839 5839 5839 5839 5840 5840 5841 5841 5842 5843 5843 5844 5844 5844 5844 5844 5845 5845 5845 5845 5845 5845 5844 5844 5844 5843 5843 5843 5842
5839 5838 5838 5838 5838 5838 5838 5838 5838 5838 5837 5837 5837 5837 5837 5837 5837 5837 5838 5838 5838 5839 5840 5840 5841 5841 5841 5841 5841 5842 5842 5842 5842 5842 5842 5842 5841 5841 5840 5840 5840 5839 5839
5838 5838 5838 5837 5837 5837 5837 5837 5837 5837 5836 5836 5835 5835 5835 5835 5835 5835 5836 5836 5836 5837 5837 5838 5838 5839 5839 5839 5839 5839 5839 5839 5839 5839 5839 5838 5838 5838 5837 5837 5836 5836 5835
5838 5837 5837 5837 5836 5836 5836 5836 5836 5835 5835 5835 5834 5834 5834 5833 5833 5833 5834 5834 5834 5835 5835 5836 5836 5836 5836 5836 5836 5836 5836 5836 5835 5835 5835 5835 5834 5834 5833 5833 5833 5832 5831
5837 5837 5836 5836 5836 5835 5835 5835 5835 5834 5834 5833 5833 5832 5832 5832 5832 5832 5832 5832 5833 5833 5833 5833 5833 5833 5833 5833 5833 5832 5832 5832 5832 5832 5831 5831 5830 5830 5829 5829 5828 5827 5827
5836 5836 5835 5835 5835 5834 5834 5834 5833 5833 5832 5832 5831 5831 5831 5830 5830 5830 5830 5830 5830 5831 5830 5830 5830 5830 5830 5830 5829 5829 5829 5829 5828 5828 5828 5827 5826 5826 5825 5824 5824 5823 5822
5835 5835 5834 5834 5833 5833 5833 5832 5832 5831 5831 5830 5830 5829 5829 5829 5828 5828 5828 5828 5828 5828 5828 5828 5827 5827 5827 5827 5827 5826 5826 5826 5825 5824 5824 5823 5822 5822 5821 5820 5819 5818 5817
5834 5833 5833 5833 5832 5832 5831 5831 5830 5830 5829 5828 5828 5828 5827 5827 5826 5826 5826 5826 5825 5826 5826 5825 5825 5825 5824 5824 5824 5823 5823 5822 5821 5821 5820 5819 5818 5817 5816 5815 5814 5812 5811
5832 5832 5831 5831 5831 5830 5830 5829 5829 5828 5828 5827 5826 5826 5825 5825 5824 5824 5823 5823 5824 5823 5823 5823 5823 5823 5822 5821 5821 5820 5820 5819 5818 5817 5815 5814 5813 5812 5810 5809 5808 5807 5806
5831 5830 5830 5830 5829 5829 5828 5828 5827 5827 5826 5825 5824 5824 5823 5823 5822 5822 5822 5821 5821 5821 5821 5821 5820 5820 5819 5819 5818 5817 5816 5815 5814 5813 5811 5810 5808 5807 5805 5804 5802 5801 5800
5829 5829 5828 5828 5828 5827 5826 5826 5825 5825 5824 5823 5823 5822 5821 5821 5820 5820 5819 5819 5819 5818 5818 5818 5817 5817 5816 5816 5815 5814 5813 5812 5810 5809 5807 5805 5803 5801 5800 5798 5797 5795 5794
5828 5827 5827 5826 5826 5825 5825 5824 5823 5823 5822 5822 5821 5820 5820 5819 5818 5818 5817 5816 5816 5816 5815 5815 5815 5814 5813 5812 5812 5811 5809 5808 5806 5805 5803 5801 5799 5797 5795 5793 5791 5789 5787
5826 5825 5825 5824 5824 5823 5823 5822 5822 5821 5820 5820 5819 5818 5817 5817 5816 5815 5815 5814 5814 5813 5813 5812 5811 5811 5810 5809 5808 5807 5806 5804 5802 5800 5798 5796 5794 5791 5789 5787 5785 5783 5781
5823 5823 5823 5822 5822 5821 5821 5820 5819 5819 5818 5817 5817 5816 5815 5814 5814 5813 5812 5812 5811 5810 5809 5809 5808 5807 5806 5805 5804 5803 5801 5800 5798 5796 5794 5791 5789 5786 5784 5781 5779 5776 5774
5821 5821 5820 5820 5819 5818 5818 5817 5817 5816 5815 5815 5814 5813 5812 5812 5811 5810 5810 5809 5808 5807 5806 5806 5805 5804 5803 5801 5800 5799 5797 5795 5793 5791 5789 5786 5784 5781 5778 5775 5772 5770 5767
5818 5817 5817 5817 5816 5815 5815 5814 5814 5813 5812 5812 5811 5810 5809 5808 5808 5807 5806 5805 5805 5804 5803 5802 5801 5800 5799 5797 5796 5794 5792 5790 5788 5787 5783 5781 5778 5775 5772 5769 5766 5763 5760
5814 5814 5813 5813 5812 5812 5811 5810 5810 5809 5809 5808 5808 5807 5806 5805 5804 5803 5802 5802 5801 5800 5799 5798 5797 5796 5794 5793 5791 5789 5787 5785 5783 5780 5777 5775 5772 5769 5765 5762 5759 5755 5752
5810 5810 5809 5809 5809 5808 5807 5807 5806 5806 5805 5804 5804 5803 5802 5801 5800 5799 5798 5798 5797 5796 5795 5793 5792 5790 5789 5787 5785 5783 5781 5779 5776 5774 5771 5768 5765 5762 5758 5755 5751 5748 5745
5805 5805 5805 5804 5804 5804 5803 5803 5802 5801 5801 5800 5799 5798 5797 5797 5796 5795 5794 5793 5792 5791 5789 5788 5786 5785 5783 5781 5779 5777 5775 5772 5770 5767 5764 5761 5758 5754 5751 5748 5744 5740 5736
5800 5800 5800 5800 5800 5799 5799 5798 5797 5797 5796 5795 5794 5794 5793 5792 5791 5790 5789 5788 5787 5785 5784 5782 5781 5779 5777 5775 5773 5770 5768 5765 5762 5760 5756 5753 5750 5746 5744 5740 5736 5732 5728
Wind_Speed
10 10 10 10 11 11 11 10 10 10 10 11 12 12 12 12 12 12 12 12 12 12 12 12 12 12 13 13 13 13 13 13 13 12 12 12 12 12 12 12 13 13 14
9 9 9 9 10 9 9 10 10 10 11 11 12 12 12 12 12 12 12 12 11 11 12 12 13 12 12 13 13 12 12 12 12 11 11 11 12 12 13 12 12 12 13
9 9 8 8 8 9 9 9 9 10 10 10 11 11 11 11 11 12 12 12 12 11 12 12 12 12 11 11 12 12 12 11 11 11 11 11 12 12 13 13 12 13 13
8 9 9 8 8 8 9 9 9 9 9 9 9 10 10 10 11 11 11 12 12 11 12 12 11 12 12 12 12 12 12 12 13 12 13 13 13 13 13 13 13 13 13
7 8 8 8 8 8 8 8 8 8 8 8 9 9 10 10 10 11 11 11 11 10 11 11 11 11 11 12 12 12 12 12 12 12 12 12 13 13 13 13 13 13 13
7 8 7 7 7 7 7 7 7 8 8 8 8 8 9 9 9 9 9 10 10 10 10 10 11 10 11 11 11 11 11 11 11 12 12 12 12 13 13 13 13 13 14
7 7 6 6 6 7 7 7 7 7 7 7 7 8 8 9 9 8 9 9 10 9 9 9 10 10 10 11 11 11 11 11 12 12 12 12 13 13 13 13 13 12 13
6 6 5 5 6 6 6 6 6 7 7 7 7 8 8 8 8 8 9 9 9 9 9 9 10 10 10 11 11 11 12 12 13 14 13 13 13 13 12 12 13 13 14
5 5 5 5 5 5 5 5 6 6 7 7 7 7 7 7 7 8 8 9 9 9 10 10 10 11 11 11 11 12 12 12 13 13 13 13 14 13 13 13 14 15 15
5 5 5 5 5 5 5 6 6 6 6 7 7 7 7 7 7 8 8 8 9 10 10 11 12 12 12 12 12 12 12 12 13 13 13 13 13 14 14 15 16 17 17
6 6 6 5 5 5 6 6 6 6 7 7 7 6 7 7 8 8 8 9 9 10 10 12 12 12 11 11 12 12 12 12 12 12 13 13 13 14 15 16 17 18 19
6 7 6 6 6 6 6 7 7 7 7 8 7 6 7 7 8 8 8 9 9 9 10 11 11 11 12 11 11 11 12 12 12 13 14 14 14 15 15 16 17 18 18
7 7 7 6 6 6 6 6 7 7 8 8 7 7 8 8 8 8 8 8 9 10 10 10 10 11 11 11 11 11 12 13 14 14 14 14 15 16 16 17 17 18 18
7 7 7 7 7 7 7 7 7 8 8 8 8 8 9 9 8 8 8 9 9 9 9 9 9 10 10 10 11 12 12 13 14 14 15 15 16 17 17 18 18 19 19
7 7 7 7 8 8 8 8 8 8 9 9 9 9 9 8 8 8 8 9 9 10 9 10 10 10 10 10 11 12 13 13 14 14 15 16 17 18 18 19 19 20 20
8 7 7 7 8 7 8 8 9 9 9 9 9 9 9 9 8 9 9 9 9 9 9 9 10 10 11 11 12 12 13 14 14 15 16 17 18 18 19 19 20 20 21
8 8 8 7 7 7 7 8 9 9 9 9 9 9 8 9 9 9 9 10 10 10 10 10 10 11 12 12 13 14 14 15 15 16 17 18 19 19 19 20 21 22 22
9 9 9 8 8 8 8 9 9 9 9 9 9 9 9 9 9 9 10 10 10 11 11 11 11 12 13 13 14 15 15 15 16 17 18 19 19 19 20 21 22 23 23
9 10 10 10 9 9 9 10 10 10 10 10 10 10 9 10 10 10 10 10 11 11 12 12 12 13 13 14 15 15 16 17 18 18 19 19 20 21 21 22 23 23 23
10 10 11 11 10 10 10 11 11 11 11 11 11 11 11 11 11 11 11 11 11 12 12 13 13 14 14 15 15 16 17 17 18 19 20 21 21 22 23 23 23 23 24
12 12 12 11 11 12 12 12 11 11 12 12 12 12 12 12 12 12 13 13 13 13 13 13 14 15 15 16 16 17 18 19 20 21 22 22 23 24 24 24 25 25 26
13 13 13 12 13 13 13 13 12 12 12 12 12 13 13 14 14 14 13 13 14 14 14 15 15 16 16 17 18 19 20 21 21 22 24 24 24 24 25 25 26 27 27
14 14 15 15 15 15 15 14 14 14 14 13 14 14 15 15 15 15 15 14 14 15 16 16 17 17 18 18 19 21 21 22 23 24 24 24 25 26 26 25 26 27 27
15 15 16 16 16 15 15 15 15 15 15 15 15 16 16 16 15 15 16 15 16 16 17 18 19 19 20 20 21 22 23 24 25 26 26 26 26 27 26 26 27 28 29
17 17 17 17 17 17 17 17 17 17 17 17 17 17 17 17 17 17 17 17 18 18 19 19 19 20 21 22 23 24 24 25 26 27 27 28 28 27 27 28 29 30 30
19 19 18 18 18 18 18 18 18 18 18 18 18 17 17 18 18 18 19 19 19 20 20 20 21 22 22 24 24 25 26 27 28 28 28 29 29 29 29 29 30 31 31
Wind_Direction
283 279 278 275 272 272 273 274 271 276 276 269 263 261 262 260 257 259 259 260 260 260 260 262 265 267 267 266 270 271 271 273 272 275 279 278 276 276 279 281 279 275 272
285 285 283 279 276 274 274 276 273 274 274 270 262 260 263 264 261 257 259 260 262 262 260 262 265 267 270 269 272 272 270 273 272 274 277 279 280 280 280 279 280 281 277
289 291 290 285 281 279 277 276 276 276 275 269 265 265 266 264 263 257 255 256 259 260 262 262 264 266 271 268 271 270 271 273 273 273 275 280 282 279 278 278 279 280 280
295 293 289 283 279 279 278 276 275 274 275 272 268 269 268 269 265 260 257 255 258 261 262 261 261 263 269 276 273 274 276 275 275 275 278 279 280 280 278 278 277 278 279
293 293 289 283 280 280 282 279 275 274 275 273 272 270 266 267 267 263 259 254 253 258 261 263 265 269 272 275 275 277 278 277 277 277 281 282 281 280 280 279 278 279 278
295 296 293 287 285 285 284 282 276 277 277 278 278 275 272 269 269 267 263 258 258 260 262 265 265 270 275 276 276 275 277 279 278 279 280 283 283 283 284 284 283 281 280
302 298 290 290 291 286 282 283 280 282 284 282 278 277 278 272 270 270 266 265 263 261 261 263 267 272 276 275 274 273 274 276 276 278 280 282 283 281 282 284 285 285 284
313 305 291 291 293 291 286 285 289 288 289 291 287 286 282 276 274 273 268 265 264 264 266 266 270 272 276 277 273 274 275 275 275 277 279 281 283 283 283 285 288 287 287
317 311 300 297 293 292 295 294 296 297 299 297 293 287 285 284 276 275 270 268 266 268 271 271 270 272 275 277 275 277 279 279 279 280 282 283 284 284 285 285 286 288 289
307 311 308 304 295 294 301 302 301 301 303 303 300 296 290 288 279 276 275 273 269 269 273 270 273 277 279 278 279 280 280 281 282 283 285 287 287 285 285 287 288 289 290
304 304 306 302 291 292 299 300 298 299 299 300 297 296 295 292 289 284 277 274 274 275 274 273 276 278 281 282 283 282 282 283 283 284 287 287 287 286 287 288 289 289 290
306 308 301 299 295 294 298 300 296 298 300 301 295 293 297 295 293 289 284 279 276 276 278 278 279 280 283 285 286 283 282 285 287 286 288 288 287 288 289 289 291 292 291
303 304 300 300 302 302 302 303 303 304 304 301 297 295 294 294 293 288 285 281 280 281 283 283 283 285 286 288 288 286 287 288 288 289 289 288 288 289 291 292 293 293 293
297 304 300 296 298 302 301 304 306 306 304 299 296 297 297 295 295 298 294 286 285 289 289 289 289 289 289 290 289 288 291 291 291 289 289 290 289 289 290 291 293 293 293
296 298 297 294 296 300 299 304 309 308 306 301 295 298 296 299 301 302 300 295 292 294 295 295 294 292 292 295 294 289 291 294 295 293 292 292 292 293 292 292 292 291 291
298 300 296 296 299 301 301 304 306 308 309 304 298 299 297 297 299 299 298 299 300 296 292 294 297 294 291 296 298 296 293 295 296 295 296 295 295 296 294 293 293 293 294
301 303 304 303 307 307 305 308 308 306 308 309 303 299 297 300 298 299 298 299 301 302 294 291 296 299 296 295 297 299 298 298 298 299 299 298 298 296 295 295 295 294 294
296 300 304 302 303 307 308 311 310 307 306 309 308 303 301 298 298 297 298 300 300 302 300 296 296 297 297 297 299 300 302 303 303 303 302 299 299 299 297 296 296 296 296
294 296 302 305 303 302 305 309 308 308 308 308 309 307 301 297 294 297 299 299 300 300 300 300 298 297 295 297 300 301 301 303 303 303 305 305 303 303 302 301 300 299 298
293 296 297 301 300 297 299 302 304 304 304 305 304 304 304 301 296 296 297 296 298 301 301 299 298 297 296 298 300 302 303 303 305 305 306 306 305 304 302 302 302 301 301
290 293 294 294 295 296 295 296 298 300 299 300 300 300 302 301 297 294 294 294 295 297 300 301 300 299 300 300 301 302 303 303 304 305 305 305 304 302 301 303 303 303 302
285 288 291 292 293 295 295 294 293 293 296 297 297 299 300 299 298 296 296 294 293 296 297 299 300 300 300 300 301 301 303 303 303 304 305 305 305 304 304 304 303 303 303
283 286 287 289 289 290 293 294 292 290 290 291 293 295 297 297 295 295 295 296 297 297 297 298 298 298 299 300 301 302 302 303 303 305 305 306 307 307 305 304 305 306 306
281 284 284 286 286 288 289 290 291 290 289 290 291 292 292 293 293 294 294 294 296 297 297 299 299 298 297 298 300 301 303 304 305 305 306 305 305 305 303 304 305 305 306
279 281 283 285 285 286 287 287 287 288 288 288 289 291 291 291 291 292 293 293 293 294 295 297 299 301 302 302 303 303 303 305 305 305 304 305 306 305 305 304 303 303 304
277 277 279 282 283 284 285 286 286 286 287 287 288 289 290 289 291 292 293 293 293 293 293 293 295 297 299 301 303 303 303 303 304 304 305 305 305 305 305 305 305 304 304